www.pogodaiklimat.ru

Погода и климат >> Архив погоды >> Китай >> Хэйлунцзян >> Тайлай


ПОГОДА в Тайлае

  • Прогноз погоды в Тайлае
  • Монитор погоды в Тайлае

АРХИВ ПОГОДЫ в Тайлае

Время (UTC), дата Ветер
(напр.,м/с)
 
Видим.   Явления Облачность Т
(С)
Тd
(С)
f
(%)
Тe
(С)
Тes
(С)
Комфортность P
(гПа)
Po
(гПа)
Тmin
(С)
Tmax
(С)
R
(мм)
R24
(мм)
S
(см)
09 12.07 СВ 3 30 км 8/8 1000 м
[]
+25.7 +18.4 64 +30 +31 душно 1001.2 984.2
12 12.07 Ю 1 30 км 6/6 1500 м
[]
+22.1 +19.5 85 +28 +28 душно 1001.9 984.7
18 12.07 С 2 30 км ?/? +19.4 +18.1 92 +22 +22 комфорт 1002.7 985.3 +28.8
21 12.07 С 3 19 км н/о +19.0 +17.8 93 +21 +21 комфорт 1002.5 985.1
00 13.07 С 2 14 км 9/9 1500 м
[]
+20.5 +18.8 90 +25 +26 комфорт 1003.6 986.2
03 13.07 С 2 30 км слаб. дождь 9/9 1500 м
[]
+23.5 +20.1 81 +29 +31 душно 1003.1 985.9
06 13.07 С 3 29 км {дождь} 8/8 1000 м
[]
+25.9 +20.5 72 +32 +35 очень
душно
1001.3 984.3 +18.8 0.0
09 13.07 С 2 28 км слаб. ливневой дождь 10/10 1000 м
[]
+22.0 +19.9 88 +28 +28 душно 1001.3 984.1
18 13.07 С 2 8000 м ?/? +18.9 +18.2 96 +21 +21 комфорт 1002.3 984.9 +26.5
21 13.07 С 2 5000 м дымка н/о +19.0 +18.5 97 +21 +21 комфорт 1002.9 985.5
00 14.07 СВ 1 11 км 5/5 1000 м
[]
+23.5 +20.6 84 +29 +34 душно 1003.5 986.3
03 14.07 В 2 27 км 5/5 1000 м
[]
+26.9 +19.5 64 +33 +41 очень
душно
1003.5 986.5
06 14.07 СВ 3 30 км 8/8 1000 м
[]
+27.6 +18.6 58 +33 +35 очень
душно
1002.3 985.4 +18.5
09 14.07 З 1 30 км 8/8 1000 м
[]
+28.5 +18.6 55 +34 +34 очень
душно
1002.0 985.1
12 14.07 В 2 25 км 8/8 1000 м
[]
+24.2 +20.5 80 +30 +30 очень
душно
1003.0 985.9
18 14.07 С 1 н/о дымка ?/? +19.4 +18.6 95 +23 +23 комфорт 1004.3 986.9 +29.0
21 14.07 штиль 0 8000 м в посл. час туман н/о +19.1 +18.4 96 +21 +21 комфорт 1005.2 987.7
00 15.07 Ю 1 19 км 9/9 1500 м
[]
+24.7 +21.0 80 +31 +32 очень
душно
1005.6 988.4
03 15.07 Ю 1 30 км 8/8 1500 м
[]
+27.5 +20.3 65 +34 +38 очень
душно
1005.6 988.6
06 15.07 ЮВ 3 30 км 4/4 1500 м
[]
+26.7 +17.8 58 +31 +38 душно 1004.9 987.9 +18.9
09 15.07 Ю 1 30 км 9/9
[]
+28.0 +21.1 66 +35 +36 очень
душно
1004.6 987.6
12 15.07 Ю 2 30 км 8/8
[]
+25.2 +20.7 76 +31 +31 очень
душно
1005.2 988.1
18 15.07 ЮВ 1 28 км ?/? +23.0 +20.7 87 +30 +30 очень
душно
1004.9 987.7 +28.8 5
21 15.07 ЮЗ 5 18 км н/о +23.3 +20.8 86 +31 +31 очень
душно
1004.1 986.9
00 16.07 Ю 2 30 км 9/9 1500 м
[]
+24.9 +20.6 77 +31 +32 очень
душно
1005.5 988.4 5
03 16.07 Ю 4 28 км {дождь} 9/9 1500 м
[]
+24.8 +21.1 80 +31 +32 очень
душно
1005.0 987.9
06 16.07 Ю 4 28 км {дождь} 8/8 1000 м
[]
+29.4 +22.4 66 +38 +40 очень
душно
1003.2 986.3 +21.4 1
09 16.07 Ю 3 22 км 9/9 1000 м
[]
+27.8 +23.6 78 +38 +38 очень
душно
1002.5 985.6
12 16.07 СВ 3 30 км в посл. час ливневой дождь 5/5 1500 м
[]
+21.4 +19.9 91 +26 +26 душно 1004.0 986.7 0.8
18 16.07 СЗ 2 7000 м ?/? +20.3 +19.6 96 +25 +25 комфорт 1005.2 989.3 +29.8 0.1
21 16.07 С 3 6000 м дымка н/о +19.9 +19.4 97 +23 +23 комфорт 1005.6 988.2
00 17.07 СВ 2 30 км 3/3
[]
+23.6 +20.1 81 +29 +35 душно 1006.6 989.4 0.1
03 17.07 В 1 30 км 3/3
[]
+26.7 +20.8 70 +33 +48 очень
душно
1006.1 989.0
06 17.07 С 2 30 км 1/1
[]
+28.8 +19.2 56 +34 +47 очень
душно
1005.2 988.3 +19.3
09 17.07 Ю 1 30 км ясно +29.3 +17.8 50 +34 +38 очень
душно
1004.2 987.3
12 17.07 Ю 2 30 км ясно +25.3 +20.8 76 +32 +32 очень
душно
1005.1 988.0
18 17.07 ЮЗ 2 11 км ?/? +22.8 +21.1 90 +30 +30 очень
душно
1004.8 987.5 +29.9
21 17.07 З 1 15 км н/о +22.2 +20.3 89 +28 +28 душно 1004.5 987.2
00 18.07 З 2 26 км ясно +26.0 +21.7 77 +33 +42 очень
душно
1004.5 987.4
03 18.07 З 3 30 км ясно +29.7 +21.1 60 +37 +52 опасность
солнечного
удара
1004.2 987.3
06 18.07 З 3 30 км ясно +32.0 +21.2 53 +40 +51 опасность
солнечного
удара
1003.1 986.4 +21.9
09 18.07 СЗ 2 30 км 3/3 1000 м
[]
+31.3 +20.6 53 +38 +41 очень
душно
1002.4 985.7
12 18.07 Ю 3 30 км 5/5 1000 м
[]
+23.8 +19.7 78 +29 +29 душно 1004.0 988.1
18 18.07 ЮВ 2 30 км ?/? +21.7 +20.2 91 +27 +27 душно 1003.5 986.2 +32.7
21 18.07 Ю 2 16 км н/о +21.4 +20.2 93 +27 +27 душно 1003.2 985.9
00 19.07 Ю 3 11 км 8/8
[]
+26.0 +22.3 80 +34 +35 очень
душно
1003.8 986.7
03 19.07 Ю 4 13 км 8/8 1500 м
[]
+30.2 +22.9 65 +40 +42 очень
душно
1003.3 986.5
06 19.07 Ю 4 22 км 9/9 1500 м
[]
+32.2 +22.0 55 +41 +42 опасность
перегрева
1002.1 986.3 +20.9

 

Местоположение метеостанции Тайлай (Хэйлунцзян, Китай): широта 46.40 долгота 123.41 высота над уровнем моря 150 м.

В архиве по умолчанию представлена погода в Тайлае за последнюю неделю. Архивные данные за месяц целиком и за предыдущие месяцы, начиная с января 2011 года, Вы можете получить, выбрав интересующий диапазон дат из раскрывающегося списка и нажав кнопку "Ввод!".


*Определитесь, кто Вы:
робот инопланетянин человек

Внимание! Время в таблицах - всемирное. Для получения местного времени необходимо прибавить поправку, которая равна 8 ч.

Смотрите также архив погоды в соседних городах и на ближайших метеорологических станциях:

Погода в Цицикаре (Хэйлунцзян, Китай) (115 км)
Погода в Аньда (Хэйлунцзян, Китай) (146 км)
Погода в Цянь Горлос (Гирин, Китай) (185 км)
Погода в Чанлине (Гирин, Китай) (243 км)
Погода в Кэшане (Хэйлунцзян, Китай) (262 км)
Погода в Харбине (Хэйлунцзян, Китай) (268 км)
Погода в Аршане (Внутренняя Монголия, Китай) (279 км)
Погода в Джаруд-Ци (Внутренняя Монголия, Китай) (282 км)
Погода в Ксиджоу (Внутренняя Монголия, Китай) (287 км)
Погода в Хайлуне (Хэйлунцзян, Китай) (293 км)

Пояснения к столбцам:

Ветер - указаны скорость ветра в м/с - средняя за 10 мин, порывы в срок и между сроками (в фигурных скобках) и направление, откуда дует ветер: С - северный, СВ - северо-восточный, В - восточный, ЮВ - юго-восточный, Ю - южный, ЮЗ - юго-западный, З - западный, СЗ - северо-западный.
Видимость - горизонтальная дальность видимости в метрах или километрах. При видимости от 1 до 10 км при отсутствии осадков обычно наблюдается дымка, при ухудшении видимости до 1 км и менее - туман. В сухую погоду видимость может ухудшаться дымом, пылью или мглою.
Явления - указаны атмосферные явления, наблюдавшиеся в срок или в последний час перед сроком; фигурными скобками обозначены явления, наблюдавшиеся между сроками (за 1-3 часа до срока); квадратными скобками обозначены град или гололедные отложения с указанием их диаметра в мм.
Облачность - указаны через наклонную черту общая и нижняя облачность в баллах и высота нижней границы облаков в метрах; квадратными скобками обозначены формы облаков: Ci - перистые, Cs - перисто-слоистые, Cc - перисто-кучевые, Ac - высококучевые, As - высокослоистые, Sc - слоисто-кучевые, Ns - слоисто-дождевые, Cu - кучевые, Cb - кучево-дождевые. Подробнее классификацию облаков см. в Атласе облаков (PDF).
T - Температура воздуха - температура, измеренная на высоте 2 м над землей.
Td - Температура точки росы - температура, при понижении до которой содержащийся в воздухе водяной пар достигнет насыщения.
f - Относительная влажность воздуха - влажноcть воздуха, измеренная на высоте 2 м над землей.
Te - Эффективная температура - температура, которую ощущает одетый по сезону человек в тени. Характеристика душности погоды. При расчете учитывается влияние влажности воздуха и скорости ветра на теплоощущения человека.
Tes - Эффективная температура на солнце - температура, которую ощущает человек, с поправкой на солнечный нагрев. Характеристика знойности погоды. Зависит от высоты солнца над горизонтом, облачности и скорости ветра. Ночью, в пасмурную погоду, а также при ветре 12 м/с и более поправка равна нулю.
P - Атмосферное давление - приведенное к уровню моря атмосферное давление.
Po - Атмосферное давление - измеренное на уровне метеостанции атмосферное давление.
Tmin - Минимальная температура - минимум температуры воздуха на высоте 2 м над землей.
Tmax - Максимальная температура - максимум температуры воздуха на высоте 2 м над землей.
R - Количество осадков - Количество выпавших осадков за период времени, мм. При наведении курсора мыши на число - период времени, за который выпало указанное количество осадков.
R24 - Количество осадков - Количество выпавших осадков за 24 часа, мм.
S - Снежный покров - Высота снежного покрова, см. При наведении курсора мыши на число - состояние снежного покрова и степень покрытия местности в баллах.